Flag for Brazil Weather past 2 weeks in Porto Alegre, Rio Grande do Sul, Brazil

Now
64 °F

Passing clouds.


Feels Like: 64 °F
Forecast: 56 / 71 °F
Wind: 5 mph from South

Location: Porto Alegre Aero-Porto


UV Index: 5 (Moderate)

Visibility: N/A


Pressure: 30.12 "Hg

Humidity: 73%

Dew point: 55 °F

Location of Porto AlegreLocation

Historic Weather in Porto Alegre

°F

Porto Alegre temperature yesterday

Maximum temperature yesterday: 72 °F (at 11:00 AM)
Minimum temperature yesterday: 57 °F (at 3:00 AM)
Average temperature yesterday: 65 °F

Past Weeks' High & Low Weather Summary

 TemperatureHumidityPressure
High84 °F (Apr 17, 1:00 PM)100% (Apr 8, 11:00 PM)30.24 "Hg (Apr 8, 11:00 PM)
Low37 °F (Apr 9, 12:00 AM)25% (Apr 9, 1:00 AM)29.56 "Hg (Apr 12, 5:00 AM)
Average69 °F77%29.99 "Hg
* Reported Apr 8 11:00 PM — Apr 23 11:00 PM, Porto Alegre, Weather by CustomWeather, © 2014

Note: Actual official high and low records may vary slightly from our data, if they occured in-between our weather recording intervals... More about our weather records

Advertising

Historic Weather Conditions — Data for Previous 24 hours

 ConditionsComfort  
Time TempWeatherWind HumidityBarometerVisibility
11:00 PM
Apr 23
66 °FPassing clouds.8 mph64%30.12 "HgN/A
10:00 PM66 °FPassing clouds.9 mph68%30.12 "HgN/A
9:00 PM66 °FOvercast.8 mph68%30.12 "HgN/A
8:00 PM66 °FOvercast.6 mph68%30.12 "HgN/A
7:00 PM68 °FPassing clouds.8 mph60%30.12 "HgN/A
6:00 PM68 °FPassing clouds.8 mph60%30.09 "HgN/A
5:00 PM70 °FPassing clouds.8 mph60%30.09 "HgN/A
4:00 PM70 °FPartly sunny.9 mph60%30.09 "HgN/A
3:00 PM72 °FPartly sunny.7 mph57%30.09 "HgN/A
2:00 PM72 °FPartly sunny.8 mph53%30.09 "HgN/A
1:00 PM70 °FBroken clouds.9 mph60%30.12 "HgN/A
12:00 PM70 °FPartly sunny.9 mph64%30.12 "HgN/A
11:00 AM72 °FPartly sunny.7 mph61%30.15 "HgN/A
10:00 AM70 °FSunny.2 mph64%30.15 "Hg10 mi
9:00 AM64 °FClear.2 mph78%30.15 "Hg6 mi
8:00 AM59 °FClear.3 mph88%30.12 "Hg5 mi
7:00 AM59 °FPartly sunny.2 mph88%30.12 "Hg6 mi
6:00 AM57 °FPassing clouds.No wind94%30.09 "Hg6 mi
5:00 AM57 °FClear.No wind88%30.09 "Hg10 mi
4:00 AM57 °FClear.3 mph94%30.07 "Hg10 mi
3:00 AM57 °FClear.No wind88%30.09 "Hg10 mi
2:00 AM59 °FClear.5 mph88%30.09 "Hg10 mi
1:00 AM61 °FClear.5 mph77%30.09 "Hg10 mi
12:00 AM64 °FClear.7 mph68%30.09 "Hg10 mi
Weather by CustomWeather, © 2014

See weather overview